When you browse on this site, cookies collect data to enhance your experience and personalize the content and advertising you see.
Visit our Privacy Policy to learn more. By continuing to use the site, you agree to this use of cookies and data.
  • In Spain
  • List of Countries
  • For 7 days
  • Water Temperature
  • Satellite Maps
  • Weather Map
  • Weather Widgets
  • user-avatar
    Login

    Hourly Weather Barra

    Today, 14 December, Friday

    Time Temperature Precipitation Wind Pressure Humidity
    00:00 +27°C° 0 mm 2 mps 760 mmHg 22%
    01:00 +27°C° 0 mm 2 mps 759 mmHg 22%
    02:00 +26°C° 0 mm 3 mps 759 mmHg 22%
    03:00 +26°C° 0 mm 3 mps 759 mmHg 23%
    04:00 +26°C° 0 mm 3 mps 759 mmHg 23%
    05:00 +26°C° 0 mm 3 mps 759 mmHg 25%
    06:00 +27°C° 0 mm 4 mps 760 mmHg 24%
    07:00 +28°C° 0 mm 4 mps 760 mmHg 22%
    08:00 +29°C° 0 mm 5 mps 760 mmHg 21%
    09:00 +32°C° 0 mm 5 mps 760 mmHg 19%
    10:00 +35°C° 0 mm 5 mps 760 mmHg 16%
    11:00 +37°C° 0 mm 5 mps 760 mmHg 14%
    12:00 +39°C° 0 mm 5 mps 760 mmHg 14%
    13:00 +40°C° 0 mm 4 mps 759 mmHg 14%
    14:00 +41°C° 0 mm 4 mps 759 mmHg 14%
    15:00 +39°C° 0 mm 3 mps 759 mmHg 15%
    16:00 +38°C° 0 mm 3 mps 759 mmHg 16%
    17:00 +37°C° 0 mm 2 mps 759 mmHg 17%
    18:00 +36°C° 0 mm 2 mps 759 mmHg 19%
    19:00 +35°C° 0 mm 2 mps 760 mmHg 21%
    20:00 +32°C° 0 mm 2 mps 760 mmHg 23%
    21:00 +32°C° 0 mm 2 mps 761 mmHg 25%
    22:00 +31°C° 0 mm 2 mps 761 mmHg 26%
    23:00 +31°C° 0 mm 3 mps 761 mmHg 28%

    Tomorrow, 15 December, Saturday

    Time Temperature Precipitation Wind Pressure Humidity
    00:00 +31°C° 0 mm 3 mps 761 mmHg 26%
    01:00 +30°C° 0 mm 3 mps 761 mmHg 25%
    02:00 +30°C° 0 mm 3 mps 761 mmHg 23%
    03:00 +30°C° 0 mm 4 mps 761 mmHg 21%
    04:00 +29°C° 0 mm 4 mps 761 mmHg 19%
    05:00 +29°C° 0 mm 4 mps 761 mmHg 17%
    06:00 +29°C° 0 mm 4 mps 761 mmHg 16%
    07:00 +29°C° 0 mm 5 mps 762 mmHg 16%
    08:00 +30°C° 0 mm 5 mps 763 mmHg 15%
    09:00 +30°C° 0 mm 5 mps 763 mmHg 16%
    10:00 +32°C° 0 mm 6 mps 763 mmHg 17%
    11:00 +32°C° 0 mm 7 mps 763 mmHg 19%
    12:00 +32°C° 0.1 mm 7 mps 763 mmHg 23%
    13:00 +30°C° 0.1 mm 7 mps 762 mmHg 28%
    14:00 +30°C° 0.1 mm 7 mps 761 mmHg 32%
    15:00 +30°C° 0 mm 7 mps 761 mmHg 34%
    16:00 +29°C° 0 mm 6 mps 761 mmHg 36%
    17:00 +29°C° 0 mm 6 mps 761 mmHg 38%
    18:00 +28°C° 0 mm 5 mps 762 mmHg 38%
    19:00 +28°C° 0 mm 5 mps 762 mmHg 39%
    20:00 +28°C° 0 mm 4 mps 762 mmHg 39%
    21:00 +28°C° 0 mm 4 mps 762 mmHg 39%
    22:00 +28°C° 0 mm 4 mps 762 mmHg 39%
    23:00 +28°C° 0 mm 4 mps 762 mmHg 39%

    Day after tomorrow, 16 December, Sunday

    Time Temperature Precipitation Wind Pressure Humidity
    00:00 +28°C° 0 mm 4 mps 762 mmHg 38%
    01:00 +27°C° 0 mm 4 mps 761 mmHg 38%
    02:00 +27°C° 0 mm 4 mps 761 mmHg 37%
    03:00 +27°C° 0 mm 4 mps 761 mmHg 36%
    04:00 +26°C° 0 mm 4 mps 761 mmHg 34%
    05:00 +26°C° 0 mm 4 mps 761 mmHg 32%
    06:00 +27°C° 0 mm 5 mps 761 mmHg 28%
    07:00 +27°C° 0 mm 5 mps 762 mmHg 24%
    08:00 +28°C° 0 mm 5 mps 762 mmHg 20%
    09:00 +30°C° 0 mm 6 mps 762 mmHg 17%
    10:00 +33°C° 0 mm 6 mps 762 mmHg 14%
    11:00 +35°C° 0 mm 6 mps 762 mmHg 11%
    12:00 +36°C° 0 mm 6 mps 761 mmHg 11%
    13:00 +37°C° 0 mm 5 mps 760 mmHg 12%
    14:00 +39°C° 0 mm 5 mps 759 mmHg 12%
    15:00 +38°C° 0 mm 4 mps 759 mmHg 13%
    16:00 +37°C° 0 mm 4 mps 759 mmHg 15%
    17:00 +36°C° 0 mm 4 mps 759 mmHg 16%
    18:00 +35°C° 0 mm 4 mps 759 mmHg 19%
    19:00 +33°C° 0 mm 4 mps 760 mmHg 22%
    20:00 +30°C° 0 mm 5 mps 761 mmHg 25%
    21:00 +29°C° 0 mm 5 mps 761 mmHg 27%
    22:00 +28°C° 0 mm 5 mps 761 mmHg 28%
    23:00 +27°C° 0 mm 6 mps 761 mmHg 30%

    17 December, Monday

    Time Temperature Precipitation Wind Pressure Humidity
    00:00 +27°C° 0 mm 6 mps 760 mmHg 31%
    01:00 +26°C° 0 mm 6 mps 760 mmHg 31%
    02:00 +26°C° 0 mm 6 mps 760 mmHg 32%
    03:00 +24°C° 0 mm 6 mps 760 mmHg 32%
    04:00 +24°C° 0 mm 6 mps 760 mmHg 32%
    05:00 +23°C° 0 mm 6 mps 759 mmHg 32%
    06:00 +24°C° 0 mm 6 mps 760 mmHg 28%
    07:00 +26°C° 0 mm 6 mps 760 mmHg 25%
    08:00 +26°C° 0 mm 6 mps 761 mmHg 22%
    09:00 +29°C° 0 mm 6 mps 761 mmHg 18%
    10:00 +33°C° 0 mm 6 mps 761 mmHg 14%
    11:00 +36°C° 0 mm 5 mps 761 mmHg 10%
    12:00 +37°C° 0 mm 5 mps 760 mmHg 9%
    13:00 +38°C° 0 mm 4 mps 759 mmHg 9%
    14:00 +40°C° 0 mm 4 mps 758 mmHg 9%
    15:00 +38°C° 0 mm 4 mps 758 mmHg 10%
    16:00 +38°C° 0 mm 4 mps 758 mmHg 11%
    17:00 +37°C° 0 mm 3 mps 758 mmHg 12%
    18:00 +35°C° 0 mm 4 mps 758 mmHg 16%
    19:00 +33°C° 0 mm 4 mps 759 mmHg 20%
    20:00 +30°C° 0 mm 4 mps 760 mmHg 25%
    21:00 +29°C° 0 mm 4 mps 760 mmHg 23%
    22:00 +29°C° 0 mm 4 mps 760 mmHg 22%
    23:00 +28°C° 0 mm 5 mps 760 mmHg 21%

    18 December, Tuesday

    Time Temperature Precipitation Wind Pressure Humidity
    00:00 +27°C° 0 mm 4 mps 760 mmHg 20%
    01:00 +27°C° 0 mm 4 mps 759 mmHg 18%
    02:00 +26°C° 0 mm 4 mps 759 mmHg 17%
    03:00 +26°C° 0 mm 4 mps 759 mmHg 17%
    04:00 +25°C° 0 mm 4 mps 759 mmHg 17%
    05:00 +25°C° 0 mm 4 mps 759 mmHg 17%
    06:00 +26°C° 0 mm 4 mps 760 mmHg 17%
    07:00 +26°C° 0 mm 5 mps 760 mmHg 16%
    08:00 +27°C° 0 mm 5 mps 761 mmHg 16%
    09:00 +30°C° 0 mm 5 mps 761 mmHg 14%
    10:00 +34°C° 0 mm 5 mps 760 mmHg 12%
    11:00 +36°C° 0 mm 5 mps 760 mmHg 11%
    12:00 +37°C° 0 mm 4 mps 759 mmHg 10%
    13:00 +38°C° 0 mm 4 mps 759 mmHg 10%
    14:00 +39°C° 0 mm 3 mps 758 mmHg 10%
    15:00 +38°C° 0 mm 3 mps 758 mmHg 11%
    16:00 +37°C° 0 mm 3 mps 758 mmHg 12%
    17:00 +37°C° 0 mm 3 mps 758 mmHg 13%
    18:00 +34°C° 0 mm 3 mps 758 mmHg 18%
    19:00 +32°C° 0 mm 4 mps 759 mmHg 23%
    20:00 +29°C° 0 mm 4 mps 760 mmHg 28%
    21:00 +28°C° 0 mm 4 mps 760 mmHg 27%
    22:00 +28°C° 0 mm 4 mps 760 mmHg 26%
    23:00 +27°C° 0 mm 4 mps 760 mmHg 25%

    19 December, Wednesday

    Time Temperature Precipitation Wind Pressure Humidity
    00:00 +26°C° 0 mm 4 mps 760 mmHg 23%
    01:00 +26°C° 0 mm 4 mps 759 mmHg 20%
    02:00 +25°C° 0 mm 4 mps 759 mmHg 18%
    03:00 +25°C° 0 mm 3 mps 759 mmHg 17%
    04:00 +24°C° 0 mm 3 mps 759 mmHg 17%
    05:00 +24°C° 0 mm 3 mps 759 mmHg 17%
    06:00 +25°C° 0 mm 4 mps 759 mmHg 16%
    07:00 +26°C° 0 mm 4 mps 760 mmHg 16%
    08:00 +26°C° 0 mm 4 mps 760 mmHg 16%
    09:00 +29°C° 0 mm 4 mps 760 mmHg 14%
    10:00 +33°C° 0 mm 4 mps 760 mmHg 13%
    11:00 +36°C° 0 mm 4 mps 760 mmHg 11%
    12:00 +37°C° 0 mm 4 mps 759 mmHg 11%
    13:00 +37°C° 0 mm 3 mps 758 mmHg 11%
    14:00 +38°C° 0 mm 3 mps 758 mmHg 10%
    15:00 +37°C° 0 mm 3 mps 757 mmHg 12%
    16:00 +37°C° 0 mm 3 mps 757 mmHg 13%
    17:00 +36°C° 0 mm 3 mps 757 mmHg 14%
    18:00 +34°C° 0 mm 4 mps 758 mmHg 21%
    19:00 +30°C° 0 mm 4 mps 758 mmHg 27%
    20:00 +28°C° 0 mm 4 mps 759 mmHg 33%
    21:00 +28°C° 0 mm 4 mps 759 mmHg 34%
    22:00 +27°C° 0 mm 4 mps 759 mmHg 34%
    23:00 +27°C° 0 mm 5 mps 759 mmHg 35%
    Show more